Weather in Dragunskoye

Russia / Belgorod Oblast     50°38′35″N   36°26′17″E
temp.,
°C
wind,
m/s
gust,
m/s
humid.,
%
clouds,
%
prec.,
mm/h
press.,
hPa
HPBL,
m
25 february, thu
thu2500:00−8ssw499699 0.3 1034300
03:00−6ssw4896100 0.7 1032289
06:00−6sw4895100 0.3 1030289
09:00−3wsw5996100 0.3 1029328
12:00+1wsw61098100 0.0 1027361
15:00+1wsw612100100 0.0 1025340
18:00+2w61399100 0.0 1023361
21:00+2w511100100 0.1 1023260
26 february, fri
fri2600:00+2wnw512100100 0.0 1023284
03:00+1wnw51099100 0.1 1023273
06:00+2wnw41099100 0.0 1022234
09:00+2w51099100 0.0 1021256
12:00+2w613100100 0.0 1019384
15:00+3w71499100 0.0 1018460
18:00+2wnw61398100 0.0 1016390
21:00+2w51198100 0.1 1016331
27 february, sat
sat2700:00+1w51197100 0.0 1014358
03:00+1w51197100 0.0 1013374
06:00+1w51096100 0.1 1011369
09:00+1wnw5119697 0.1 1010589
12:00+1w61198100 0.1 1010577
15:00+1w61097100 0.2 1010617
18:00+1wnw61197100 0.1 1009548
21:000wnw51097100 0.2 1010483
28 february, sun
sun2800:000nw51094100 0.1 1011508
03:000nnw5109497 0.3 1013663
06:00−3n7128395 0.1 1015730
09:00−3n688193 0.1 1017793
12:00−3n6879100 0.1 1019784
15:00−2nnw6880100 0.1 1020776
18:00−3nnw5883100 0.1 1021771
21:00−3n4987100 0.1 1023770
1 march, mon
mon100:00−4n269596 0.0 1024368
03:00−4n259497 0.1 1026313
06:00−5n259388 0.0 1027252
09:00−4n368786 0.1 1029476
12:00−3n4676100 0.1 1030851
15:00−2n457499 0.1 1031835
18:00−3nnw358092 0.0 1031452
21:00−4nw368861 0.0 1032214